Location: Three Oaks Observatory
(31.1535°N, 83.5955°W)
Time: 04:21:07
(UTC-04:00)

NO-84 - Visible Passes

Search period start: 21 October 2019 00:00
Search period end: 31 October 2019 00:00
Orbit: 333 x 507 km, 55.0° (Epoch: 16 October)

Date Brightness Start Highest point End Pass type
(mag) Time Alt. Az. Time Alt. Az. Time Alt. Az.
21 Oct ? 06:14:37 10° N 06:17:17 17° NE 06:19:54 10° E visible
22 Oct ? 05:29:07 10° NNE 05:29:52 11° NE 05:30:57 10° NE visible
22 Oct ? 07:03:03 10° NW 07:06:56 87° SW 07:10:40 10° SE visible
23 Oct ? 06:17:28 21° NNW 06:19:45 47° NE 06:23:24 10° ESE visible
24 Oct ? 05:32:56 26° NE 05:32:56 26° NE 05:35:44 10° ESE visible
24 Oct ? 07:05:58 11° WNW 07:08:55 24° WSW 07:11:59 10° S visible
25 Oct ? 06:21:32 46° WSW 06:21:52 48° SW 06:25:30 10° SSE visible
26 Oct ? 05:37:10 21° SE 05:37:10 21° SE 05:38:30 10° SE visible
26 Oct ? 20:33:40 10° SSW 20:35:31 32° SSW 20:35:31 32° SSW visible
27 Oct ? 19:46:53 10° S 19:49:50 32° SE 19:50:57 25° E visible
28 Oct ? 20:36:06 10° WSW 20:39:02 29° NW 20:39:15 28° NW visible
29 Oct ? 19:48:31 10° SW 19:51:42 57° NW 19:54:23 15° NNE visible
30 Oct ? 20:40:28 10° NW 20:41:24 11° NW 20:42:19 10° NNW visible
